{"data":{"norad_id":59601,"epoch":"2026-09-21T08:29:40.949952Z","epoch_age_seconds":94437,"freshness":"FRESH","line1":"1 59601U 24080A   26264.35394618  .00000217  00000+0  17398-4 0  9995","line2":"2 59601  43.0035  13.1870 0000920 265.2519  94.8228 15.27578698135661","mean_motion":15.27578698,"eccentricity":9.2e-5,"inclination_deg":43.0035,"raan_deg":13.187,"arg_perigee_deg":265.2519,"mean_anomaly_deg":94.8228,"bstar":1.7398e-5,"rev_number":13566,"period_min":94.266829059959,"perigee_km":482.4217652193,"apogee_km":483.68422417833,"semimajor_km":6861.1899946988,"source":"CELESTRAK","updated_at":"2026-09-22T09:00:49.008336Z"}}